Location: Unspecified
(0.0000°N, 0.0000°E)
Time: 00:00:14
(UTC+00:00)

Explorer 25 - Pass Details

Date: 14 March 2026
Orbit: 523 x 2264 km, 81.3° (Epoch: 14 April)

Event Time Altitude Azimuth Distance (km) Brightness Sun altitude
Rises 18:37:32 0° 189° (S) 5,782 12.7 -7.1°
Reaches altitude 10° 18:41:17 10° 191° (S) 4,681 12.2 -8.0°
Maximum altitude 18:53:17 70° 272° (W) 1,876 10.2 -11.0°
Drops below altitude 10° 19:01:58 10° 355° (N) 3,456 11.4 -13.2°
Sets 19:04:23 0° 358° (N) 4,222 11.8 -13.8°
